Погода в Туринске

Погода в Туринске : погода сейчас, прогноз погоды и архив. Всё, что Вы хотите узнать о погоде в Туринске!

Хотите узнать прогноз погоды в Туринске? Тогда Вам сюда: Погода в Туринске

Поиск расширенной информации на нашем сайте:

Другие новости

Новости СМИ2

Главная страница сайта

Новости сайта

03.07.2017

Напоминаем, что на нашем специализированном сайте Метеоцентр.Азия вы можете получить высокодетализированные автоматические прогнозы погоды по пунктам России, СНГ и мира в авиационном формате (включающие направление и скорость ветра, видимость, явления погоды, количество и форму облачности, нижнюю и верхнюю границу облачности).

Рекомендуем: офисные блоки на выгодных условиях аренда офиса в бизнес парке Московский шелк У метро Спортивная

Погода в Туринске - сегодня

Время (UTC), дата Ветер
(°,м/с) 
Видим.   Явления Облачность Т
(°С)
Тd
(°С)
f(%) Тe
(°С)
Pmin
(гПа)
dP
(гПа)
Po
(мм)
O2
(г/м3)
Тmin Tmax R s Состояние
почвы
06 13.10.18 310 (СЗ) 20000 м    10/10 600 м кучево-дожд. 
[Cb calv]
+1.5 -1.4 81 +1  1005.5  0.2  745  299           
06 14.10.18 310 (СЗ) 20000 м  {ливн. осадки}  10/10 300 м кучево-дожд. 
[Cb calv]
+0.9 -1.4 85 1008.8  1.3  747  300           
06 15.10.18 100 (В) 20000 м    10/0 верхняя 
[Ci fib]
-0.8 -3.8 80 1020.1  0.9  755  306  -2.5         
12 15.10.18 тихо ()   20000 м    10/10 600 м 
[Sc]
+0.1 -4.8 70 1021.8  0.7  757  305           
18 15.10.18 тихо ()   1000 м    ясно 
-4.3 -5.9 89 -4  1023.2  0.4  758  311           
00 16.10.18 тихо ()   1000 м    ясно 
-6.7 -7.7 93 -7  1022.3  -0.8  757  313           
06 16.10.18 210 (ЮЗ) 20000 м    10/0 средняя, верхняя 
[Ac trans|Ci fib]
+0.5 -4.2 71 1020.3  -1.5  755  304           
12 16.10.18 220 (ЮЗ) 20000 м    10/10 600 м кучево-дожд. 
[Cb calv]
+1.5 -2.9 72 +1  1015.9  -2.5  752  302           
06 17.10.18 240 (ЮЗ) 20000 м    10/10 600 м кучево-дожд. 
[Cb calv]
+4.8 +3.7 93 +6  999.9  -3.5  741  293           
12 17.10.18 260 (З) 20000 м    10/10 600 м кучево-дожд. 
[Cb calv]
+8.6 +5.8 83 +9  993.3  -2.6  736  286           
06 18.10.18 340 (С) 3{10}  20000 м    10/10 300 м 
[Frnb]
+0.7 -3.3 75 -1  1008.6  1.7  747  301           
18 18.10.18 350 (С) 1000 м    6/6 600 м 
[Sc]
-1.1 -4.6 77 -1  1012.9  -0.2  750  304           
00 19.10.18 тихо ()   1000 м    ясно 
-2.7 -4.3 89 -3  1011.8  -0.7  749  305           
06 19.10.18 тихо ()   20000 м    10/10 600 м кучево-дожд. 
[Cb calv]
-0.2 -2.6 84 -0  1009.2  -0.7  747  302           
06 20.10.18 300 (СЗ) 4000 м  дымка{ливн. осадки}  4/4 600 м 
[Sc diur, vesp]
+8.5 +7 90 +9  1001.8  0.1  742  289           
12 20.10.18 300 (СЗ) 20000 м    8/6 600 м кучево-дожд., средняя 
[Cb calv|Ac trans]
+7.3 +0.6 62 +8  1002.5  0.5  743  291           
18 20.10.18 310 (СЗ) 1000 м    10/10 600 м кучево-дожд. 
[Cb calv]
+4 +0.2 76 +5  1004.3  0.5  744  295           
12 21.10.18 330 (СЗ) 20000 м    10/10 600 м 
-0.7 -5.8 68 -3  1014.6  751  304           
18 21.10.18 320 (СЗ) 1000 м    10/10 600 м кучево-дожд. 
[Cb calv]
-1.2 -7 65 -2  1017.3  0.9  753  306           
00 22.10.18 320 (СЗ) 1000 м    10/10 600 м 
[Sc]
-1 -5.6 71 -2  1020.1  1.1  755  306           
06 22.10.18 320 (СЗ) 20000 м    10/10 600 м 
[Sc]
+1.1 -6.1 59 1022.3  0.9  757  304           
12 22.10.18 270 (З) 20000 м    10/10 600 м 
[Sc]
+0.9 -5.8 61 +2  1020.3  -1.1  755  304           
18 22.10.18 240 (ЮЗ) 1000 м    10/0 средняя, верхняя 
[Ac trans|Ci fib]
+0.8 -3.7 72 +1  1015.5  -3.1  752  303           
06 23.10.18 260 (З) 20000 м    10/0 средняя, верхняя 
[As trans|Ci fib]
+3.6 +0.5 80 +3  1007.7  -1.1  746  297           
12 23.10.18 270 (З) 20000 м    ясно 
+6.8 +0 62 +7  1007.9  0.4  747  293           
Время (UTC), дата Ветер
(°,м/с) 
Видим.   Явления Облачность Т
(°С)
Тd
(°С)
f(%) Тe
(°С)
Pmin
(гПа)
dP
(гПа)
Po
(мм)
O2
(г/м3)
Тmin Tmax R s Состояние
почвы

Для получения пояснительной информации подведите курсор к названию столбца.

ПОГОДА в Туринске - архив

Всё, что Вы хотите узнать о погоде в Туринске - удобно и подробно!

Выберите нужную дату (начиная с 1 января 2015* года) и нажмите кнопку "Найти".
Будут отображены архивные сводки погоды по пункту Туринск, начиная с указанной даты.


Отображать данные в формате CSV (для использования в таблицах Excel)


Внимание! Наш архив погоды предназначен исключительно для личного некоммерческого использования в познавательных целях. Если Вам необходимы официальные справки о состоянии погоды (для производственных, юридических, коммерческих и т.п. целей), обращайтесь в органы Росгидромета.

*Примечание: данная дата относится к архиву по метеостанциям СССР (Россия, СНГ, Балтия).
Архив по метеостанциям Зарубежной Европы и Азии (кроме Китая) хранится 10 дней, по другим регионам земного шара (Китай, Африка, Америка, Австралия, Океания) - 1 день.

Туринск - район местоположения метеостанции


Название, широта, долгота, высота метеостанции:
Туринск 58.1°ш. 63.7°д. 103 м над ур. моря [Российская Федерация]

Дополнительная информация

В oтличие oт бoльшинства пoгoдных сайтoв мы публикуем пoдрoбную метеoинфoрмацию в детальнoм прoфессиoнальнoм фoрмате.

Характеристики температуры и влажнoсти вoздуха измеряются на высoте 2 м в тени вдали oт зданий и деревьев.
Скoрoсть ветра измеряется на высoте 10 м (на урoвне рoста челoвека скoрoсть ветра ниже в 1.5-2 раза). Если метеoстанция нахoдится в гoрoде или в лесу, тo скoрoсть ветра занижена на 2-4 м/с пo сравнению с oткрытым местoм. Скoрoсть ветра над акватoриями крупных рек и oзёр, а также на вершинах хoлмoв на 2-5 м/с выше, чем в oбычных услoвиях.
Атмoсфернoе давление в разных тoчках местнoсти мoжет значительнo oтличаться oт давления на метеoстанции, в зависимoсти oт услoвий рельефа (при пoдъёме на 10 м давление пoнижается примернo на 1 мм рт.ст.).